User: anonymous   Login
Location: Blanot
(47.1713°N, 4.2340°E)
Time: 10:11:45
(UTC+00:00)
Language:

NOSS 2-1 (D) - Orbit

View from above orbital plane
View from above orbital plane
View from above satellite
View from above satellite

Ground track
Ground track

The orbit data is extracted from the following two-line orbital elements,

1 20692U 90050D   20263.06205965 0.00000000  00000-0  00000-0 0    02
2 20692  63.3167 345.0512 0877357  48.8654 311.1346 13.42081182    08
Epoch (UTC): 19 September 2020 01:29:21
Eccentricity: 0.0877357
inclination: 63.3167°
perigee height: 445 km
apogee height: 1758 km
right ascension of ascending node: 345.0512°
argument of perigee: 48.8654°
revolutions per day: 13.42081182
mean anomaly at epoch: 311.1346°
orbit number at epoch: 0

The dashed part of the orbit path shows where the satellite is in the earth's shadow,  

DLR